Weather History for PHBK - July, 2012

Change the Weather History Date:

Friday, July 13, 2012

  Actual Average Record
Temperature  
Mean Temperature 76 °F -  
Max Temperature 84 °F 88 °F 91 °F (1968)
Min Temperature 69 °F 67 °F 60 °F (1974)
Cooling Degree Days 12    
Growing Degree Days 26 (Base 50)    
Moisture  
Dew Point 64 °F    
Average Humidity 62    
Maximum Humidity 69    
Minimum Humidity 56    
Precipitation  
Precipitation 0.00 in - - ()
Sea Level Pressure  
Sea Level Pressure 30.01 in    
Wind  
Wind Speed 4 mph (North)    
Max Wind Speed 12 mph    
Max Gust Speed -    
Visibility 10 miles    
Events Rain    
Averages and records for this station are not official NWS values.
T = Trace of Precipitation, MM = Missing Value Source: NWS Daily Summary

Daily Weather History Graph

Daily Weather History Graph

Search for Another Location

Airport or City:

Trip Planner

Search our weather history database for the weather conditions in past years. The results will help you decide how hot, cold, wet, or windy it might be!

Date:

Astronomy

Jul. 13, 2012 Rise Set
Actual Time 6:04 AM HST 7:25 PM HST
Civil Twilight 5:39 AM HST 7:50 PM HST
Nautical Twilight 5:10 AM HST 8:19 PM HST
Astronomical Twilight 4:39 AM HST 8:50 PM HST
Moon 1:40 AM HST (7/13) 3:10 PM HST (7/13)
Length of Visible Light 14h 11m
Length of Day
13h 21m
Waning Crescent, 24% of the Moon is Illuminated
Jul 13
Waning Crescent
Jul 18
New
Jul 25
First Quarter
Aug 1
Full
Aug 9
Last Quarter

Hourly Weather History & Observations

Time (HST) Temp. Heat Index Dew Point Humidity Pressure Visibility Wind Dir Wind Speed Gust Speed Precip Events Conditions
12:56 AM 71.1 °F - 57.0 °F 61% 30.03 in 10.0 mi ENE 3.5 mph - N/A   Clear
1:56 AM 69.1 °F - 55.9 °F 63% 30.01 in 10.0 mi Calm Calm - N/A   Clear
2:56 AM 71.1 °F - 57.9 °F 63% 30.00 in 10.0 mi East 4.6 mph - N/A   Clear
3:56 AM 71.1 °F - 57.9 °F 63% 29.99 in 10.0 mi East 4.6 mph - N/A   Clear
4:56 AM 70.0 °F - 57.9 °F 65% 30.00 in 10.0 mi ENE 4.6 mph - N/A   Clear
5:56 AM 70.0 °F - 57.0 °F 63% 30.00 in 10.0 mi East 4.6 mph - N/A   Clear
6:56 AM 71.1 °F - 59.0 °F 66% 30.03 in 10.0 mi Calm Calm - N/A   Clear
7:56 AM 78.1 °F - 63.0 °F 60% 30.03 in 10.0 mi SE 4.6 mph - N/A   Mostly Cloudy
8:56 AM 79.0 °F - 64.9 °F 62% 30.04 in 10.0 mi SSW 6.9 mph - N/A   Mostly Cloudy
9:56 AM 81.0 °F 82.7 °F 64.9 °F 58% 30.05 in 10.0 mi North 6.9 mph - N/A   Overcast
10:56 AM 80.1 °F 82.1 °F 66.0 °F 62% 30.05 in 10.0 mi NNW 9.2 mph - 0.00 in Rain Light Rain
11:56 AM 81.0 °F 82.5 °F 64.0 °F 56% 30.04 in 10.0 mi NNW 10.4 mph - 0.00 in   Mostly Cloudy
12:56 PM 82.0 °F 84.5 °F 66.9 °F 60% 30.02 in 10.0 mi NNW 8.1 mph - N/A   Scattered Clouds
1:56 PM 84.0 °F 87.0 °F 68.0 °F 58% 30.00 in 10.0 mi WNW 10.4 mph - N/A   Clear
2:56 PM 82.9 °F 85.8 °F 68.0 °F 60% 29.99 in 10.0 mi WNW 11.5 mph - N/A   Clear
3:56 PM 82.9 °F 86.5 °F 69.1 °F 63% 29.98 in 10.0 mi West 9.2 mph - N/A   Partly Cloudy
4:56 PM 82.9 °F 85.4 °F 66.9 °F 58% 29.96 in 10.0 mi West 6.9 mph - N/A   Scattered Clouds
5:56 PM 81.0 °F 83.8 °F 68.0 °F 65% 29.96 in 10.0 mi WNW 5.8 mph - N/A   Mostly Cloudy
6:56 PM 81.0 °F 83.3 °F 66.9 °F 62% 29.98 in 10.0 mi Calm Calm - N/A   Partly Cloudy
7:56 PM 80.1 °F 82.3 °F 66.9 °F 64% 30.00 in 10.0 mi Calm Calm - N/A   Clear
8:56 PM 78.1 °F - 66.0 °F 66% 30.01 in 10.0 mi Calm Calm - N/A   Clear
9:56 PM 75.9 °F - 64.9 °F 69% 30.02 in 10.0 mi SE 3.5 mph - N/A   Clear
10:56 PM 77.0 °F - 64.9 °F 66% 30.03 in 10.0 mi Calm Calm - N/A   Clear
11:56 PM 77.0 °F - 64.9 °F 66% 30.02 in 10.0 mi ENE 3.5 mph - N/A   Partly Cloudy